Carnival Pride — H3VU — position and weather

sailwx.info

Track history (hours):
 
Tides and Currents Weather Stations Pressure Air Temp Water Temp Dewpoint Dewpoint Depression Visibility Wind Speed Wind Dir Waves Ship Positions

Carnival Pride

Operator: Carnival Cruise Lines

Last reported at 2016-Jun-21 09:00 UTC. Time now 2016-Jun-25 01:44 UTC.
Position N 29°06' W 073°12'.

Type: Ship. MMSI: 354215000.

Wind from 080 at 15 knots

Waves 0.5 meters (2 feet), 3 second period

Barometer 1021.0 mb
Air temperature 24.0 ° C
Visibility: greater than 10.8 NM
Dewpoint 15.8 ° C
Water temperature 26.0 ° C

Date/timePositionNaut miles runAvg speedWind from/ knotsBaromVisibWave heightAir tempDewpointWater temp
2016-Jun-21 09:00N 29°06' W 073°12'24120.1 080 / 151021.010.8 0.524.015.826.0
2016-Jun-20 21:00N 33°00' W 074°18'16219.2 240 / 71022.010.8 24.022.525.0
2016-Jun-20 12:33N 35°36' W 075°08'3817.1
2016-Jun-20 10:20N 36°13' W 075°21'1417.4
2016-Jun-20 09:32N 36°25' W 075°30'1 1.9
2016-Jun-20 09:00N 36°24' W 075°30'1839.4 260 / 201023.0 2.2 24.021.021.0
2016-Jun-20 08:33N 36°40' W 075°40'1615.8
2016-Jun-20 07:33N 36°52' W 075°52'1211.8
2016-Jun-20 06:34N 37°00' W 076°02'1716.9
2016-Jun-20 05:32N 37°17' W 076°07'1717.2
2016-Jun-20 04:34N 37°34' W 076°03'1816.6
2016-Jun-20 03:28N 37°51' W 076°09'1718.2
2016-Jun-20 02:34N 38°07' W 076°14'2019.1
2016-Jun-20 01:31N 38°26' W 076°22'1818.3
2016-Jun-20 00:32N 38°44' W 076°26'1818.0
2016-Jun-19 23:33N 39°01' W 076°23'1211.8
2016-Jun-19 22:33N 39°12' W 076°30'6 3.1
2016-Jun-19 20:30N 39°16' W 076°36'0 0.0
2016-Jun-19 19:16N 39°16' W 076°36'0 0.0
2016-Jun-19 18:33N 39°16' W 076°36'0 0.0
2016-Jun-19 17:12N 39°16' W 076°36'0 0.0
2016-Jun-19 16:04N 39°16' W 076°36'0 0.0
2016-Jun-19 14:29N 39°16' W 076°36'2 2.5
2016-Jun-19 13:33N 39°15' W 076°33'1110.9
2016-Jun-19 12:34N 39°07' W 076°24'1615.7
2016-Jun-19 11:33N 38°51' W 076°24'2120.1
2016-Jun-19 10:30N 38°30' W 076°24'2020.7
2016-Jun-19 09:33N 38°12' W 076°14'2020.0
2016-Jun-19 08:33N 37°53' W 076°09'1818.0
2016-Jun-19 07:33N 37°35' W 076°04'1818.0
2016-Jun-19 06:33N 37°17' W 076°07'1616.3
2016-Jun-19 05:33N 37°01' W 076°03'15915.9
2016-Jun-18 19:33N 34°22' W 076°12'20719.6
2016-Jun-18 09:00N 31°42' W 078°48'25122.0 040 / 251012.0 1.1 1.526.021.529.0
2016-Jun-17 21:33N 27°33' W 079°31'2423.2
2016-Jun-17 20:33N 27°12' W 079°21'2222.3
2016-Jun-17 19:33N 26°51' W 079°11'  
2016-Jun-13 09:00N 32°06' W 075°18'284115.7 020 / 251010.0 2.2 2.023.016.526.0
2016-Jun-13 06:32N 36°49' W 075°47'1414.7
2016-Jun-13 05:33N 36°59' W 076°00'10818.0
2016-Jun-12 23:33N 38°46' W 076°26'1717.6
2016-Jun-12 22:33N 39°03' W 076°23'1212.1
2016-Jun-12 21:33N 39°13' W 076°32'4 3.8
2016-Jun-12 20:24N 39°16' W 076°36'0 0.0
2016-Jun-12 17:10N 39°16' W 076°36'0 0.0
2016-Jun-12 13:33N 39°16' W 076°36'0 0.4
2016-Jun-12 12:33N 39°16' W 076°36'1010.2
2016-Jun-12 11:34N 39°10' W 076°25'1414.1
2016-Jun-12 10:33N 38°55' W 076°23'4219.7
2016-Jun-12 08:26N 38°14' W 076°15'1820.0
2016-Jun-12 07:33N 37°57' W 076°10'1918.8
2016-Jun-12 06:33N 37°38' W 076°07'3517.6
2016-Jun-12 04:33N 37°03' W 076°05'1414.4
2016-Jun-12 03:33N 36°53' W 075°52'13218.8
2016-Jun-11 20:31N 34°41' W 075°40'2122.1
2016-Jun-11 19:34N 34°25' W 075°56'2220.9
2016-Jun-11 18:30N 34°09' W 076°14'  
Track history (hours):
 
Tides and Currents Weather Stations Pressure Air Temp Water Temp Dewpoint Dewpoint Depression Visibility Wind Speed Wind Dir Waves Ship Positions

Carnival Pride

Operator: Carnival Cruise Lines

Last reported at 2016-Jun-21 09:00 UTC. Time now 2016-Jun-25 01:44 UTC.
Position N 29°06' W 073°12'.

Type: Ship. MMSI: 354215000.

Wind from 080 at 15 knots

Waves 0.5 meters (2 feet), 3 second period

Barometer 1021.0 mb
Air temperature 24.0 ° C
Visibility: greater than 10.8 NM
Dewpoint 15.8 ° C
Water temperature 26.0 ° C

Date/timePositionNaut miles runAvg speedWind from/ knotsBaromVisibWave heightAir tempDewpointWater temp
2016-Jun-21 09:00N 29°06' W 073°12'24120.1 080 / 151021.010.8 0.524.015.826.0
2016-Jun-20 21:00N 33°00' W 074°18'16219.2 240 / 71022.010.8 24.022.525.0
2016-Jun-20 12:33N 35°36' W 075°08'3817.1
2016-Jun-20 10:20N 36°13' W 075°21'1417.4
2016-Jun-20 09:32N 36°25' W 075°30'1 1.9
2016-Jun-20 09:00N 36°24' W 075°30'1839.4 260 / 201023.0 2.2 24.021.021.0
2016-Jun-20 08:33N 36°40' W 075°40'1615.8
2016-Jun-20 07:33N 36°52' W 075°52'1211.8
2016-Jun-20 06:34N 37°00' W 076°02'1716.9
2016-Jun-20 05:32N 37°17' W 076°07'1717.2
2016-Jun-20 04:34N 37°34' W 076°03'1816.6
2016-Jun-20 03:28N 37°51' W 076°09'1718.2
2016-Jun-20 02:34N 38°07' W 076°14'2019.1
2016-Jun-20 01:31N 38°26' W 076°22'1818.3
2016-Jun-20 00:32N 38°44' W 076°26'1818.0
2016-Jun-19 23:33N 39°01' W 076°23'1211.8
2016-Jun-19 22:33N 39°12' W 076°30'6 3.1
2016-Jun-19 20:30N 39°16' W 076°36'0 0.0
2016-Jun-19 19:16N 39°16' W 076°36'0 0.0
2016-Jun-19 18:33N 39°16' W 076°36'0 0.0
2016-Jun-19 17:12N 39°16' W 076°36'0 0.0
2016-Jun-19 16:04N 39°16' W 076°36'0 0.0
2016-Jun-19 14:29N 39°16' W 076°36'2 2.5
2016-Jun-19 13:33N 39°15' W 076°33'1110.9
2016-Jun-19 12:34N 39°07' W 076°24'1615.7
2016-Jun-19 11:33N 38°51' W 076°24'2120.1
2016-Jun-19 10:30N 38°30' W 076°24'2020.7
2016-Jun-19 09:33N 38°12' W 076°14'2020.0
2016-Jun-19 08:33N 37°53' W 076°09'1818.0
2016-Jun-19 07:33N 37°35' W 076°04'1818.0
2016-Jun-19 06:33N 37°17' W 076°07'1616.3
2016-Jun-19 05:33N 37°01' W 076°03'15915.9
2016-Jun-18 19:33N 34°22' W 076°12'20719.6
2016-Jun-18 09:00N 31°42' W 078°48'25122.0 040 / 251012.0 1.1 1.526.021.529.0
2016-Jun-17 21:33N 27°33' W 079°31'2423.2
2016-Jun-17 20:33N 27°12' W 079°21'2222.3
2016-Jun-17 19:33N 26°51' W 079°11'  
2016-Jun-13 09:00N 32°06' W 075°18'284115.7 020 / 251010.0 2.2 2.023.016.526.0
2016-Jun-13 06:32N 36°49' W 075°47'1414.7
2016-Jun-13 05:33N 36°59' W 076°00'10818.0
2016-Jun-12 23:33N 38°46' W 076°26'1717.6
2016-Jun-12 22:33N 39°03' W 076°23'1212.1
2016-Jun-12 21:33N 39°13' W 076°32'4 3.8
2016-Jun-12 20:24N 39°16' W 076°36'0 0.0
2016-Jun-12 17:10N 39°16' W 076°36'0 0.0
2016-Jun-12 13:33N 39°16' W 076°36'0 0.4
2016-Jun-12 12:33N 39°16' W 076°36'1010.2
2016-Jun-12 11:34N 39°10' W 076°25'1414.1
2016-Jun-12 10:33N 38°55' W 076°23'4219.7
2016-Jun-12 08:26N 38°14' W 076°15'1820.0
2016-Jun-12 07:33N 37°57' W 076°10'1918.8
2016-Jun-12 06:33N 37°38' W 076°07'3517.6
2016-Jun-12 04:33N 37°03' W 076°05'1414.4
2016-Jun-12 03:33N 36°53' W 075°52'13218.8
2016-Jun-11 20:31N 34°41' W 075°40'2122.1
2016-Jun-11 19:34N 34°25' W 075°56'2220.9
2016-Jun-11 18:30N 34°09' W 076°14'  

Dump ship's entire track history